Weather History for Murray, KY

Change the Weather History Date:

Monday, July 2, 2012

  Actual Average (KPAH) Record (KPAH)
Temperature  
Mean Temperature 86 °F 79 °F  
Max Temperature 98 °F 89 °F 101 °F (2012)
Min Temperature 75 °F 68 °F 56 °F (1948)
Degree Days  
Heating Degree Days 0 0  
Month to date heating degree days 0  
Since 1 June heating degree days 4  
Since 1 July heating degree days 0  
Cooling Degree Days 22 14  
Month to date cooling degree days 28  
Year to date cooling degree days 520  
Since 1 June cooling degree days 348  
Growing Degree Days 36 (Base 50)    
Moisture  
Dew Point 67 °F    
Average Humidity 53    
Maximum Humidity 78    
Minimum Humidity 30    
Precipitation  
Precipitation 0.00 in 0.14 in 2.68 in (1989)
Month to date precipitation 0.29  
Year to date precipitation 25.57  
Snow  
Snow 0.00 in 0.00 in - ()
Month to date snowfall 0.0  
Since 1 June snowfall 0.0  
Since 1 July snowfall 0.0  
Snow Depth -    
Sea Level Pressure  
Sea Level Pressure 30.01 in    
Wind  
Wind Speed 7 mph (SSW)    
Max Wind Speed 15 mph    
Max Gust Speed 23 mph    
Visibility 10 miles    
Events      
T = Trace of Precipitation, MM = Missing Value Source: NWS Daily Summary

Daily Weather History Graph

Daily Weather History Graph

Search for Another Location

Airport:

Trip Planner

Search our weather history database for the weather conditions in past years. The results will help you decide how hot, cold, wet, or windy it might be!

Date:

Astronomy

Jul. 02, 2012 Rise Set
Actual Time 5:39 AM CDT 8:15 PM CDT
Civil Twilight 5:08 AM CDT 8:46 PM CDT
Nautical Twilight 4:30 AM CDT 9:24 PM CDT
Astronomical Twilight 3:48 AM CDT 10:06 PM CDT
Moon 7:19 PM CDT (7/2) 4:25 AM CDT (7/2)
Length of Visible Light 15h 37m
Length of Day
14h 36m
Waxing Gibbous, 98% of the Moon is Illuminated
Jul 2
Waxing Gibbous
Jul 3
Full
Jul 10
Last Quarter
Jul 18
New
Jul 26
First Quarter

Hourly Weather History & Observations

Time (CDT) Temp. Heat Index Dew Point Humidity Pressure Visibility Wind Dir Wind Speed Gust Speed Precip Events Conditions
12:15 AM 80.6 °F 83.2 °F 68.0 °F 65% 29.99 in 10.0 mi SSW 5.8 mph - N/A   Clear
12:35 AM 80.6 °F 83.2 °F 68.0 °F 65% 29.99 in 10.0 mi SSW 3.5 mph - N/A   Unknown
12:55 AM 80.6 °F 83.2 °F 68.0 °F 65% 29.99 in 10.0 mi Calm Calm - N/A   Unknown
1:15 AM 77.0 °F - 68.0 °F 74% 29.99 in 10.0 mi SSW 3.5 mph - N/A   Clear
1:35 AM 78.8 °F - 68.0 °F 69% 29.99 in 10.0 mi SW 3.5 mph - N/A   Unknown
1:55 AM 77.0 °F - 68.0 °F 74% 30.00 in 10.0 mi South 4.6 mph - N/A   Unknown
2:15 AM 77.0 °F - 68.0 °F 74% 30.00 in 10.0 mi SSW 5.8 mph - N/A   Unknown
2:35 AM 80.6 °F 83.2 °F 68.0 °F 65% 30.00 in 10.0 mi SSW 6.9 mph - N/A   Unknown
2:55 AM 80.6 °F 83.2 °F 68.0 °F 65% 30.01 in 10.0 mi SSW 5.8 mph - N/A   Unknown
3:15 AM 80.6 °F 83.2 °F 68.0 °F 65% 30.01 in 10.0 mi SW 3.5 mph - N/A   Unknown
3:35 AM 80.6 °F 83.2 °F 68.0 °F 65% 30.01 in 10.0 mi SW 4.6 mph - N/A   Unknown
3:55 AM 77.0 °F - 68.0 °F 74% 30.01 in 10.0 mi SW 5.8 mph - N/A   Unknown
4:15 AM 78.8 °F - 68.0 °F 69% 30.01 in 10.0 mi SSW 5.8 mph - N/A   Clear
4:35 AM 78.8 °F - 68.0 °F 69% 30.01 in 10.0 mi SSW 6.9 mph - N/A   Clear
4:55 AM 78.8 °F - 68.0 °F 69% 30.02 in 10.0 mi SSW 5.8 mph - N/A   Clear
5:15 AM 77.0 °F - 69.8 °F 78% 30.03 in 10.0 mi South 3.5 mph - N/A   Clear
5:35 AM 75.2 °F - 68.0 °F 78% 30.03 in 10.0 mi South 5.8 mph - N/A   Unknown
5:55 AM 77.0 °F - 69.8 °F 78% 30.03 in 10.0 mi SSW 5.8 mph - N/A   Clear
6:15 AM 77.0 °F - 69.8 °F 78% 30.03 in 10.0 mi South 4.6 mph - N/A   Clear
6:35 AM 77.0 °F - 69.8 °F 78% 30.03 in 10.0 mi South 5.8 mph - N/A   Clear
6:55 AM 77.0 °F - 69.8 °F 78% 30.04 in 10.0 mi South 4.6 mph - N/A   Clear
7:15 AM 78.8 °F - 69.8 °F 74% 30.04 in 10.0 mi SSE 5.8 mph - N/A   Clear
7:35 AM 80.6 °F 84.6 °F 71.6 °F 74% 30.05 in 10.0 mi South 6.9 mph - N/A   Clear
7:55 AM 82.4 °F 87.2 °F 71.6 °F 70% 30.05 in 10.0 mi SSW 6.9 mph - N/A   Clear
8:15 AM 84.2 °F 88.4 °F 69.8 °F 62% 30.06 in 10.0 mi SSW 9.2 mph - N/A   Clear
8:35 AM 84.2 °F 88.4 °F 69.8 °F 62% 30.06 in 10.0 mi SSW 9.2 mph - N/A   Clear
8:55 AM 86.0 °F 90.4 °F 69.8 °F 58% 30.06 in 10.0 mi SSW 6.9 mph - N/A   Clear
9:15 AM 87.8 °F 93.8 °F 71.6 °F 58% 30.06 in 10.0 mi SW 5.8 mph - N/A   Clear
9:35 AM 87.8 °F 92.6 °F 69.8 °F 55% 30.06 in 10.0 mi SSW 5.8 mph - N/A   Clear
9:55 AM 89.6 °F 93.4 °F 68.0 °F 49% 30.05 in 10.0 mi SSW 8.1 mph - N/A   Clear
10:15 AM 89.6 °F 93.4 °F 68.0 °F 49% 30.05 in 10.0 mi South 5.8 mph - N/A   Clear
10:35 AM 89.6 °F 93.4 °F 68.0 °F 49% 30.05 in 10.0 mi South 9.2 mph - N/A   Clear
10:55 AM 91.4 °F 95.4 °F 68.0 °F 46% 30.05 in 10.0 mi SSW 8.1 mph - N/A   Clear
11:15 AM 93.2 °F 97.7 °F 68.0 °F 44% 30.05 in 10.0 mi South 9.2 mph - N/A   Clear
11:35 AM 93.2 °F 97.7 °F 68.0 °F 44% 30.05 in 10.0 mi SSW 9.2 mph 16.1 mph N/A   Clear
11:55 AM 93.2 °F 96.2 °F 66.2 °F 41% 30.04 in 10.0 mi SW 10.4 mph - N/A   Clear
12:15 PM 95.0 °F 98.5 °F 66.2 °F 39% 30.04 in 10.0 mi SSW 9.2 mph - N/A   Clear
12:35 PM 95.0 °F 98.5 °F 66.2 °F 39% 30.03 in 10.0 mi SSW 9.2 mph 19.6 mph N/A   Clear
12:55 PM 98.6 °F 100.0 °F 62.6 °F 30% 30.03 in 10.0 mi WSW 11.5 mph 18.4 mph N/A   Clear
1:15 PM 98.6 °F 100.0 °F 62.6 °F 30% 30.02 in 10.0 mi West 11.5 mph 20.7 mph N/A   Partly Cloudy
1:35 PM 98.6 °F 100.0 °F 62.6 °F 30% 30.02 in 10.0 mi SSW 15.0 mph 23.0 mph N/A   Clear
1:55 PM 98.6 °F 100.0 °F 62.6 °F 30% 30.01 in 10.0 mi SSW 13.8 mph 20.7 mph N/A   Clear
2:15 PM 98.6 °F 100.0 °F 62.6 °F 30% 30.01 in 10.0 mi WSW 11.5 mph 18.4 mph N/A   Partly Cloudy
2:35 PM 98.6 °F 100.0 °F 62.6 °F 30% 30.00 in 10.0 mi SSW 11.5 mph 17.3 mph N/A   Partly Cloudy
2:55 PM 98.6 °F 100.0 °F 62.6 °F 30% 30.00 in 10.0 mi SW 10.4 mph - N/A   Partly Cloudy
3:15 PM 98.6 °F 100.0 °F 62.6 °F 30% 30.00 in 10.0 mi SW 13.8 mph 18.4 mph N/A   Partly Cloudy
3:35 PM 98.6 °F 101.0 °F 64.4 °F 32% 29.99 in 10.0 mi SW 12.7 mph 21.9 mph N/A   Partly Cloudy
3:55 PM 98.6 °F 101.0 °F 64.4 °F 32% 29.99 in 10.0 mi WSW 13.8 mph 21.9 mph N/A   Partly Cloudy
4:15 PM 98.6 °F 100.0 °F 62.6 °F 30% 29.98 in 10.0 mi SW 8.1 mph - N/A   Partly Cloudy
4:35 PM 98.6 °F 100.0 °F 62.6 °F 30% 29.97 in 10.0 mi SW 12.7 mph 21.9 mph N/A   Partly Cloudy
4:55 PM 98.6 °F 101.0 °F 64.4 °F 32% 29.96 in 10.0 mi SSW 10.4 mph 20.7 mph N/A   Clear
5:15 PM 96.8 °F 99.0 °F 64.4 °F 34% 29.96 in 10.0 mi WSW 15.0 mph - N/A   Clear
5:35 PM 96.8 °F 100.7 °F 66.2 °F 37% 29.96 in 10.0 mi WSW 11.5 mph 18.4 mph N/A   Clear
5:55 PM 95.0 °F 97.0 °F 64.4 °F 36% 29.96 in 10.0 mi SW 11.5 mph - N/A   Clear
6:15 PM 95.0 °F 98.5 °F 66.2 °F 39% 29.98 in 10.0 mi SW 11.5 mph - N/A   Clear
6:35 PM 95.0 °F 98.5 °F 66.2 °F 39% 29.98 in 10.0 mi SW 12.7 mph 17.3 mph N/A   Clear
6:55 PM 93.2 °F 96.2 °F 66.2 °F 41% 29.98 in 10.0 mi WSW 10.4 mph - N/A   Clear
7:15 PM 91.4 °F 94.0 °F 66.2 °F 43% 29.98 in 10.0 mi WSW 11.5 mph - N/A   Clear
7:35 PM 91.4 °F 94.0 °F 66.2 °F 43% 29.98 in 10.0 mi WSW 8.1 mph - N/A   Clear
7:55 PM 89.6 °F 92.2 °F 66.2 °F 46% 29.98 in 10.0 mi WSW 8.1 mph - N/A   Clear
8:15 PM 87.8 °F 91.4 °F 68.0 °F 52% 29.98 in 10.0 mi WSW 6.9 mph - N/A   Clear
8:35 PM 86.0 °F 89.4 °F 68.0 °F 55% 29.98 in 10.0 mi SW 5.8 mph - N/A   Clear
8:55 PM 84.2 °F 87.3 °F 68.0 °F 58% 30.00 in 10.0 mi SW 4.6 mph - N/A   Clear
9:15 PM 84.2 °F 87.3 °F 68.0 °F 58% 30.01 in 10.0 mi SW 4.6 mph - N/A   Clear
9:35 PM 84.2 °F 86.6 °F 66.2 °F 55% 30.02 in 10.0 mi SW 3.5 mph - N/A   Clear
9:55 PM 82.4 °F 85.4 °F 68.0 °F 62% 30.02 in 10.0 mi SW 5.8 mph - N/A   Clear
10:15 PM 84.2 °F 86.6 °F 66.2 °F 55% 30.02 in 10.0 mi SW 6.9 mph - N/A   Clear
10:35 PM 84.2 °F 86.6 °F 66.2 °F 55% 30.03 in 10.0 mi SSW 5.8 mph - N/A   Clear
11:15 PM 82.4 °F 83.9 °F 64.4 °F 54% 30.05 in 10.0 mi East 4.6 mph - N/A   Clear
11:35 PM 80.6 °F 82.3 °F 64.4 °F 58% 30.06 in 10.0 mi East 4.6 mph - N/A   Clear
11:55 PM 80.6 °F 82.3 °F 64.4 °F 58% 30.06 in 10.0 mi East 6.9 mph - N/A   Unknown